Location: Unspecified
(0.0000°N, 0.0000°E)
Time: 23:04:55
(UTC+00:00)

ISS - Pass Details

Date: 19 October 2020
Orbit: 417 x 420 km, 51.6° (Epoch: 30 October)

Event Time Altitude Azimuth Distance (km) Brightness Sun altitude
Exits shadow 04:40:29 33° 249° (WSW) 722 -3.0 -15.9°
Maximum altitude 04:41:37 50° 305° (NW) 531 -3.7 -15.6°
Drops below altitude 10° 04:44:51 10° 22° (NNE) 1,480 -0.8 -14.8°
Sets 04:46:58 0° 28° (NNE) 2,340 0.3 -14.3°
